Location: Az?znagar
(16.8373°N, 80.5091°E)
Time: 02:37:04
(UTC+00:00)

X-37B - Visible Passes

Search period start: 24 May 2022 00:00
Search period end: 03 June 2022 00:00
Orbit: 329 x 342 km, 45.0° (Epoch: 18 May)

Date Brightness Start Highest point End Pass type
(mag) Time Alt. Az. Time Alt. Az. Time Alt. Az.
24 May 2.2 14:10:51 10° N 14:12:51 18° NE 14:13:05 18° NE visible
25 May 0.8 14:30:31 10° NW 14:32:52 58° NW 14:32:52 58° NW visible
26 May 3.2 14:51:53 10° W 14:52:43 13° WSW 14:52:43 13° WSW visible
27 May 0.2 13:35:57 10° NW 13:38:44 88° WSW 13:41:24 11° SE visible
28 May 2.9 13:57:17 10° W 13:59:04 15° SW 14:00:50 10° S visible
